Change the Weather History Date:

Saturday, March 29, 2014

  Actual Average Record
Temperature  
Mean Temperature 62 °F -  
Max Temperature 68 °F 66 °F 77 °F (2005)
Min Temperature 55 °F 51 °F 46 °F (1999)
Degree Days  
Heating Degree Days 4    
Growing Degree Days 12 (Base 50)    
Moisture  
Dew Point 52 °F    
Average Humidity 72    
Maximum Humidity 88    
Minimum Humidity 48    
Precipitation  
Precipitation 0.00 in 0.04 in - ()
Sea Level Pressure  
Sea Level Pressure 29.63 in    
Wind  
Wind Speed 17 mph ()    
Max Wind Speed 26 mph    
Max Gust Speed -    
Visibility 4.8 miles    
Events      
Averages and records for this station are not official NWS values.
T = Trace of Precipitation, MM = Missing Value Source: Averaged Metar Reports

Daily Weather History Graph

Daily Weather History Graph

Search for Another Location

Airport or City:

Trip Planner

Search our weather history database for the weather conditions in past years. The results will help you decide how hot, cold, wet, or windy it might be!

Date:

Astronomy

Mar. 29, 2014 Rise Set
Actual Time 6:53 AM CET 7:23 PM CET
Civil Twilight 6:27 AM CET 7:49 PM CET
Nautical Twilight 5:56 AM CET 8:20 PM CET
Astronomical Twilight 5:24 AM CET 8:52 PM CET
Moon 5:51 AM CET (3/29) 6:12 PM CET (3/29)
Length of Visible Light 13h 22m
Length of Day
12h 29m
Waning Crescent, 2% of the Moon is Illuminated
Mar 29
Waning Crescent
Mar 30
New
Apr 7
First Quarter
Apr 15
Full
Apr 22
Last Quarter

Hourly Weather History & Observations

Time (CET) Temp. Dew Point Humidity Pressure Visibility Wind Dir Wind Speed Gust Speed Precip Events Conditions
7:00 AM 58 °F 53 °F 80% 29.60 in 4 mi NNE 26.5 mph - -   Mist
7:00 AM 59.0 °F 55.4 °F 88% 29.59 in 3.7 mi NNE 23.0 mph - N/A   Partly Cloudy
7:43 AM 59.0 °F 55.4 °F 88% 29.59 in 2.5 mi NE 23.0 mph - N/A   Partly Cloudy
8:00 AM 59.0 °F 55.4 °F 88% 29.59 in 2.5 mi NE 20.7 mph - N/A   Partly Cloudy
9:00 AM 59.0 °F 55.4 °F 88% 29.59 in 2.5 mi NE 21.9 mph - N/A   Partly Cloudy
10:00 AM 62 °F 55 °F 71% 29.61 in - NE 25.3 mph - -   Mist
10:00 AM 60.8 °F 55.4 °F 82% 29.59 in 1.9 mi NE 24.2 mph - N/A   Partly Cloudy
11:00 AM 62.6 °F 55.4 °F 77% 29.59 in 1.9 mi NE 21.9 mph - N/A   Partly Cloudy
11:32 AM 62.6 °F 55.4 °F 77% 29.59 in 3.1 mi NE 19.6 mph - N/A   Partly Cloudy
12:00 PM 62.6 °F 55.4 °F 77% 29.59 in 3.1 mi NE 19.6 mph - N/A   Mist
1:00 PM 65 °F 56 °F 64% 29.62 in 3 mi ENE 18.4 mph - -   Haze
1:00 PM 64.4 °F 55.4 °F 73% 29.59 in 3.1 mi ENE 13.8 mph - N/A   Mist
2:00 PM 64.4 °F 55.4 °F 73% 29.59 in 3.1 mi East 11.5 mph - N/A   Partly Cloudy
3:00 PM 66.2 °F 53.6 °F 64% 29.59 in 3.1 mi South 9.2 mph - N/A   Scattered Clouds
4:00 PM 65 °F 50 °F 48% 29.63 in 6 mi SSW 18.4 mph - -  
4:00 PM 62.6 °F 50.0 °F 63% 29.62 in - SSW 18.4 mph - N/A   Clear
5:00 PM 60.8 °F 50.0 °F 68% 29.62 in 6.2 mi SSW 16.1 mph - N/A   Partly Cloudy
6:00 PM 60.8 °F 48.2 °F 63% 29.65 in 6.2 mi SSW 15.0 mph - N/A   Partly Cloudy
7:00 PM 58 °F 46 °F 54% 29.70 in 12 mi SSW 11.5 mph - -   Scattered Clouds
7:00 PM 57.2 °F 46.4 °F 67% 29.68 in 6.2 mi SSW 10.4 mph - N/A   Partly Cloudy
8:00 PM 57.2 °F 48.2 °F 72% 29.71 in 6.2 mi SSW 8.1 mph - N/A   Partly Cloudy
9:00 PM 55.4 °F 48.2 °F 77% 29.74 in 6.2 mi SSW 9.2 mph - N/A   Partly Cloudy
10:00 PM 57 °F 47 °F 60% 29.79 in 12 mi South 4.6 mph - -   Mostly Cloudy
10:00 PM 57.2 °F 48.2 °F 72% 29.77 in 6.2 mi SSW 4.6 mph - N/A   Mostly Cloudy